Showing default

FOSSASAT2E21, 64536

Orbit data source: Space-Track

FOSSASAT2E21, 64536 is a payload satellite owned by WiseKey (ES) in SSO that was launched on Mon, 23 Jun 2025 UTC via an FALCON 9 launch vehicle from the Air Force Western Test Range (AFWTR). Payload-class satellites include a variety of spacecraft equipped with specific instruments for various scientific and technological missions. These include communications satellites like Starlink; space stations such as the ISS; scientific satellites like the Hubble; Earth observation satellites from companies like Planet Labs, Umbra, and HawkEye 360; GPS; miniature CubeSats for education and research; and military/defense satellites.

Loading next visibility...
Identifier
64536, 2025-135J
Orbit
SSO
Country
Flag of ESES / SPN
Related business
Manufacturer
Fossa Systems
Mission
Operational Commercial Communications
Bus & Motor
CUBESAT 3U, Unknown motor
Mass
4 kg wet, 4 kg dry
Launch date (UTC)
2025-06-23 (11 months ago)
Launch vehicle
FALCON 9
Launch site
Air Force Western Test Range (AFWTR)
Object type
Payload
Rocket body
Debris
Shape & HBR
Box + 2 Pan, 0.1 m
Radar Cross Section
0.035 m², Medium (>0.1 m² and < 1m²)

Expand to show TLE details & history
Last TLE update: 7 hours ago

TLE from 7 hours ago
0 FOSSASAT2E21
1 64536U 25135J   26150.83165439  .00003529  00000-0  16770-3 0  9996
2 64536  97.4634 265.3436 0002880 230.9449 129.1530 15.19865428 52183
Epoch: 2026-05-30T19:57Z
TLE epoch observation values (Epoch: 2026-05-30T19:57:34.939Z)
Latitude
-0°
Longitude
77.60599°
Altitude
510.588 km
Speed
7.608 km/s
True Right ascension
17h 41m 22s
True Declination
0° 00' 00"
Sunlit
Object was in full shadow at epoch
Visualization orbit readout
Latitude
Unknown
Longitude
Unknown
Altitude
Unknown
Speed
Unknown
Apparent Right ascension
Unknown
Apparent Declination
Unknown
Sunlit
N/A
Visualization observer readout
Local Sidereal Time
12:24:05
Azimuth
Unknown
Elevation
Unknown
Doppler factor
Unknown
Orbital elements
Apogee altitude
505.197 km
Perigee altitude
501.234 km
Semi-major axis
6,881.352 km
Eccentricity
0.00029
Inclination
97.4634°
RAAN
265.3436°
Arg. of periapsis
230.9449°
True anomaly
129.17859°
Mean anomaly
129.153°
Eccentric anomaly
129.16579°
Mean motion
3.80218 °/min
Orbital period
94.68 mins
BSTAR
0.0001677
Loading maneuver chart data...
Computing Atmospheric mass density...
Loading historical data...
Loading historical data...
Loading historical data...
Loading historical data...
Loading historical data...
Loading historical data...
Loading historical data...

Documentation

Showing up to 5 results
|